SV2BZQ-2 Thessalonik GR current weather conditions

sailwx.info

Wind from 180

Air temperature 23.3° C
Dewpoint 19.7° C

Last reported at 2016-May-30 17:55 UTC.
Time now 2016-May-30 18:28 UTC

Location: N 40°41' E 022°51'.
View on Google Maps.

See reports from other nearby stations

  
Tides and Currents Weather Stations Pressure Air Temp Water Temp Dewpoint Dewpoint Depression Visibility Wind Speed Wind Dir Waves Ship Positions
date/time (UTC)wind fromknots sea level pressurealtimeterstation pressurevisibilityair tempwater tempwave heightnotes
2016-May-30 17:55 180 23.3
2016-May-30 17:49 176 23.3
2016-May-30 17:45 176 23.9
2016-May-30 17:39 176 23.9
2016-May-30 17:35 176 23.9
2016-May-30 17:29 175 23.9
2016-May-30 17:25 176 0 gusting 3 23.9
2016-May-30 17:19 175 0 gusting 1 23.9
2016-May-30 17:15 175 0 gusting 2 23.9
2016-May-30 17:11 175 0 gusting 2 23.9
2016-May-30 17:05 175 0 gusting 2 23.9
2016-May-30 17:01 175 0 gusting 2 24.4
2016-May-30 16:55 172 0 gusting 4 24.4
2016-May-30 16:51 173 1 gusting 4 24.4
2016-May-30 16:45 173 1 gusting 5 24.4
2016-May-30 16:41 173 1 gusting 5 24.4
2016-May-30 16:35 178 0 gusting 2 24.4
2016-May-30 16:30 176 0 gusting 3 24.4
2016-May-30 16:24 180 1 gusting 4 24.4
2016-May-30 16:20 176 2 gusting 5 24.4
2016-May-30 16:14 171 3 gusting 6 24.4
2016-May-30 16:10 189 2 gusting 6 24.4
2016-May-30 16:04 165 2 gusting 6 24.4
2016-May-30 16:00 168 3 gusting 6 25.0
2016-May-30 15:54 171 2 gusting 7 25.0
2016-May-30 15:50 196 2 gusting 7 25.0
2016-May-30 15:44 166 2 gusting 6 25.0
2016-May-30 15:40 162 3 gusting 6 25.0
2016-May-30 15:36 169 2 gusting 6 25.0
2016-May-30 15:30 148 1 gusting 6 25.0
2016-May-30 15:26 171 1 gusting 6 25.0
2016-May-30 15:17 164 1 gusting 4 24.4
2016-May-30 15:15 161 1 gusting 4 24.4
2016-May-30 15:09 142 1 gusting 6 24.4
2016-May-30 15:05 175 1 gusting 6 24.4
2016-May-30 14:59 184 2 gusting 6 23.9
2016-May-30 14:55 173 2 gusting 6 23.9
2016-May-30 14:49 189 1 gusting 4 24.4
2016-May-30 14:46 184 1 gusting 4 23.9
2016-May-30 14:39 191 1 gusting 7 24.4
2016-May-30 14:35 182 2 gusting 7 24.4
2016-May-30 14:30 205 3 gusting 10 24.4
2016-May-30 14:25 183 3 gusting 11 24.4
2016-May-30 14:19 164 4 gusting 8 25.0
2016-May-30 14:16 203 3 gusting 9 25.0
2016-May-30 14:09 167 5 gusting 9 25.6
2016-May-30 14:05 211 5 gusting 9 25.6
2016-May-30 14:00 196 5 gusting 8 25.6
2016-May-30 13:54 224 3 gusting 9 26.1
2016-May-30 13:51 215 1 gusting 5 26.1
2016-May-30 13:45 211 0 gusting 6 26.1
2016-May-30 13:40 191 1 gusting 6 26.1
2016-May-30 13:34 150 26.1
2016-May-30 13:30 148 25.6
2016-May-30 13:24 148 25.6
2016-May-30 13:20 146 25.6
2016-May-30 13:14 146 25.6
2016-May-30 13:10 146 25.6
2016-May-30 13:06 146 0 gusting 3 25.6
2016-May-30 13:00 145 1 gusting 5 25.6
2016-May-30 12:55 144 2 gusting 6 25.6
2016-May-30 12:49 103 3 gusting 8 25.6
2016-May-30 12:45 126 3 gusting 8 26.1
2016-May-30 12:39 126 2 gusting 6 26.1
2016-May-30 12:35 145 2 gusting 6 26.1
2016-May-30 12:29 158 1 gusting 4 26.7
2016-May-30 12:25 149 1 gusting 4 26.7
2016-May-30 12:19 188 2 gusting 6 26.7
2016-May-30 12:15 168 3 gusting 6 26.7
2016-May-30 12:09 177 4 gusting 9 26.7
2016-May-30 12:05 169 4 gusting 9 26.7
2016-May-30 11:59 188 5 gusting 9 27.2
2016-May-30 11:55 205 5 gusting 9 27.2
2016-May-30 11:49 166 4 gusting 9 27.8
2016-May-30 11:45 178 4 gusting 9 27.8
2016-May-30 11:41 170 3 gusting 7 28.3
2016-May-30 11:34 168 3 gusting 8 28.3
2016-May-30 11:30 195 3 gusting 8 28.3
2016-May-30 11:24 190 3 gusting 6 28.3
2016-May-30 11:20 175 3 gusting 6 28.3
2016-May-30 11:14 167 2 gusting 6 28.3
2016-May-30 11:10 200 2 gusting 6 28.3
2016-May-30 11:04 200 3 gusting 6 28.3
2016-May-30 11:01 164 1 gusting 8 28.3
2016-May-30 10:54 168 4 gusting 8 28.3
2016-May-30 10:50 187 4 gusting 7 28.9
2016-May-30 10:45 202 4 gusting 8 28.3
2016-May-30 10:40 203 3 gusting 8 28.9
2016-May-30 10:34 159 3 gusting 7 28.9
2016-May-30 10:30 169 4 gusting 7 28.3
2016-May-30 10:24 183 4 gusting 7 28.9
2016-May-30 10:20 185 4 gusting 7 29.4
2016-May-30 10:15 161 3 gusting 7 29.4
2016-May-30 10:10 186 2 gusting 7 29.4
2016-May-30 10:04 217 3 gusting 8 29.4
2016-May-30 10:01 198 4 gusting 8 29.4
2016-May-30 09:54 188 2 gusting 6 30.0
2016-May-30 09:50 170 2 gusting 6 29.4
2016-May-30 09:46 126 2 gusting 6 29.4
2016-May-30 09:40 226 2 gusting 6 29.4
2016-May-30 09:36 211 1 gusting 6 29.4
2016-May-30 09:30 194 0 gusting 6 28.9
2016-May-30 09:26 125 1 gusting 6 28.9
2016-May-30 09:19 208 3 gusting 6 28.3
2016-May-30 09:15 204 4 gusting 6 28.3
2016-May-30 09:10 195 3 gusting 9 28.3
2016-May-30 09:06 182 3 gusting 9 28.3
2016-May-30 09:00 226 2 gusting 7 28.3
2016-May-30 08:55 194 2 gusting 7 28.3
2016-May-30 08:49 178 2 gusting 6 28.3
2016-May-30 08:45 172 3 gusting 6 28.3
2016-May-30 08:39 174 2 gusting 6 28.3
2016-May-30 08:35 172 1 gusting 6 28.3
2016-May-30 08:29 195 1 gusting 5 27.8
2016-May-30 08:26 195 2 gusting 5 27.8
2016-May-30 08:19 173 2 gusting 5 27.2
2016-May-30 08:15 133 2 gusting 6 27.2
2016-May-30 08:09 129 3 gusting 6 26.7
2016-May-30 08:05 130 3 gusting 7 26.7
2016-May-30 07:59 122 2 gusting 7 26.7
2016-May-30 07:55 143 2 gusting 6 26.7
2016-May-30 07:49 158 2 gusting 6 26.7
2016-May-30 07:45 134 1 gusting 6 26.7
2016-May-30 07:39 132 1 gusting 6 26.7
2016-May-30 07:35 134 1 gusting 4 26.7
2016-May-30 07:29 196 26.1
2016-May-30 07:25 196 0 gusting 3 26.1
2016-May-30 07:19 207 1 gusting 3 26.1
2016-May-30 07:15 207 0 gusting 3 26.1
2016-May-30 07:09 217 0 gusting 2 25.6
2016-May-30 07:05 218 0 gusting 2 25.6
2016-May-30 07:00 217 0 gusting 2 25.0
2016-May-30 06:55 218 1 gusting 4 25.0
2016-May-30 06:49 218 1 gusting 4 25.0
2016-May-30 06:45 200 0 gusting 3 25.0
2016-May-30 06:41 200 0 gusting 4 24.4
2016-May-30 06:35 200 1 gusting 4 24.4
2016-May-30 06:31 199 0 gusting 4 24.4
2016-May-30 06:24 198 0 gusting 4 24.4
2016-May-30 06:20 196 0 gusting 3 23.9
2016-May-30 06:15 194 0 gusting 2 23.3
2016-May-30 06:10 194 0 gusting 2 23.3
2016-May-30 06:04 195 0 gusting 3 23.3
2016-May-30 06:00 198 0 gusting 3 22.8
2016-May-30 05:55 198 22.2
2016-May-30 05:50 211 0 gusting 2 22.2
2016-May-30 05:44 219 0 gusting 2 22.2
2016-May-30 05:40 221 0 gusting 2 21.7
2016-May-30 05:34 221 21.7
2016-May-30 05:30 222 21.1
2016-May-30 05:25 222 20.6
2016-May-30 05:20 222 20.6
2016-May-30 05:15 223 20.0
2016-May-30 05:10 222 20.6
2016-May-30 05:04 305 20.0
2016-May-30 05:00 304 20.0
2016-May-30 04:56 304 20.0
2016-May-30 04:50 305 19.4
2016-May-30 04:46 305 19.4
2016-May-30 04:40 305 19.4
2016-May-30 04:36 306 18.9
2016-May-30 04:29 306 18.9
2016-May-30 04:25 306 18.9
2016-May-30 04:19 306 18.3
2016-May-30 04:15 306 18.3
2016-May-30 04:10 306 18.3
2016-May-30 04:05 306 18.3
2016-May-30 03:59 306 18.3
2016-May-30 03:55 306 18.3
2016-May-30 03:49 302 18.3
2016-May-30 03:45 302 18.3
2016-May-30 03:40 302 17.8
2016-May-30 03:35 302 18.3
2016-May-30 03:29 304 18.3
2016-May-30 03:26 304 17.8
2016-May-30 03:19 304 18.3
2016-May-30 03:15 304 18.3
2016-May-30 03:09 304 18.3
2016-May-30 03:05 304 18.3
2016-May-30 02:59 303 18.3
2016-May-30 02:56 303 17.8
2016-May-30 02:49 301 18.3
2016-May-30 02:45 304 18.3
2016-May-30 02:41 303 18.3
2016-May-30 02:35 304 18.3
2016-May-30 02:31 304 18.3
2016-May-30 02:25 304 17.8
2016-May-30 02:21 304 18.3
2016-May-30 02:15 304 18.3
2016-May-30 02:10 304 18.3
2016-May-30 02:04 303 18.3
2016-May-30 02:00 304 18.3
2016-May-30 01:55 314 18.3
2016-May-30 01:50 314 18.3
2016-May-30 01:44 315 18.3
2016-May-30 01:40 315 18.3
2016-May-30 01:34 314 18.3
2016-May-30 01:30 314 18.3
2016-May-30 01:24 314 18.3
2016-May-30 01:20 314 18.3
2016-May-30 01:14 314 0 gusting 3 18.3
2016-May-30 01:10 313 0 gusting 6 18.3
2016-May-30 01:04 299 1 gusting 6 18.3
2016-May-30 01:00 297 0 gusting 4 18.3
2016-May-30 00:54 298 18.3
2016-May-30 00:50 302 18.9
2016-May-30 00:44 311 18.3
2016-May-30 00:40 311 18.9
2016-May-30 00:36 310 18.9
2016-May-30 00:30 311 18.9
2016-May-30 00:26 303 18.9
2016-May-30 00:20 304 19.4
2016-May-30 00:16 304 19.4
2016-May-30 00:10 308 19.4
2016-May-30 00:06 310 19.4
2016-May-30 00:00 311 19.4
2016-May-29 23:55 311 19.4
2016-May-29 23:50 311 20.0
2016-May-29 23:45 311 20.0
2016-May-29 23:39 311 20.0
2016-May-29 23:35 244 20.0
2016-May-29 23:29 237 20.0
2016-May-29 23:25 238 20.0
2016-May-29 23:19 238 20.0
2016-May-29 23:15 238 20.0
2016-May-29 23:09 238 20.0
2016-May-29 23:05 237 20.0
2016-May-29 22:59 238 20.6
2016-May-29 22:55 238 20.6
2016-May-29 22:49 220 20.6
2016-May-29 22:45 213 20.6
2016-May-29 22:41 213 21.1
2016-May-29 22:35 213 21.1
2016-May-29 22:31 213 21.1
2016-May-29 22:25 213 21.1
2016-May-29 22:21 213 21.1
2016-May-29 22:15 213 21.7
2016-May-29 22:11 213 21.7
2016-May-29 22:02 213 21.7
2016-May-29 22:00 213 21.7
2016-May-29 21:56 185 21.7
2016-May-29 21:50 169 21.7
2016-May-29 21:46 170 21.7
2016-May-29 21:40 171 21.7
2016-May-29 21:36 171 21.7
2016-May-29 21:29 171 21.7
2016-May-29 21:25 170 22.2
2016-May-29 21:19 169 22.2
2016-May-29 21:15 170 22.2
2016-May-29 21:09 170 22.2
2016-May-29 21:05 170 22.2
2016-May-29 21:00 170 22.2
2016-May-29 20:55 169 22.2
2016-May-29 20:49 170 22.2
2016-May-29 20:43 170 22.2
2016-May-29 20:39 169 22.2
2016-May-29 20:35 170 22.2
2016-May-29 20:29 170 22.2
2016-May-29 20:25 169 22.2
2016-May-29 20:19 170 22.8
2016-May-29 20:15 170 22.8
2016-May-29 20:09 170 22.8
2016-May-29 20:05 169 22.8
2016-May-29 19:59 169 22.8
2016-May-29 19:55 170 22.8
2016-May-29 19:49 170 22.8
2016-May-29 19:43 170 22.8
2016-May-29 19:40 170 22.8
2016-May-29 19:36 169 22.8
2016-May-29 19:30 170 22.8
2016-May-29 19:26 170 22.8
2016-May-29 19:20 169 22.8
2016-May-29 19:15 170 22.8
2016-May-29 19:09 170 23.3
2016-May-29 19:05 170 23.3
2016-May-29 18:59 170 23.3
2016-May-29 18:56 169 23.3
2016-May-29 18:49 169 23.3
2016-May-29 18:45 170 23.3
2016-May-29 18:39 171 23.3
2016-May-29 18:35 171 23.3
2016-May-29 18:29 171 23.3
2016-May-29 18:25 171 23.3
2016-May-29 18:21 171 23.9
2016-May-29 18:15 171 23.9
2016-May-29 18:11 171 23.9
2016-May-29 18:05 171 23.9
2016-May-29 18:01 171 23.9
2016-May-29 17:55 171 23.9
2016-May-29 17:51 171 23.9
2016-May-29 17:45 171 23.9
2016-May-29 17:41 172 24.4
2016-May-29 17:35 172 24.4
2016-May-29 17:31 172 24.4
2016-May-29 17:24 172 24.4
2016-May-29 17:20 172 24.4
2016-May-29 17:15 168 24.4
2016-May-29 17:10 169 0 gusting 4 24.4
2016-May-29 17:04 169 1 gusting 4 24.4
2016-May-29 17:00 166 0 gusting 4 24.4
2016-May-29 16:56 157 24.4
2016-May-29 16:50 169 1 gusting 5 24.4
2016-May-29 16:44 178 2 gusting 6 24.4
2016-May-29 16:40 161 1 gusting 6 24.4
2016-May-29 16:34 198 2 gusting 6 25.0
2016-May-29 16:30 171 1 gusting 4 25.0
2016-May-29 16:25 184 0 gusting 6 24.4
2016-May-29 16:20 180 2 gusting 6 24.4
2016-May-29 16:14 175 2 gusting 5 24.4
2016-May-29 16:10 166 2 gusting 6 25.0
2016-May-29 16:04 164 2 gusting 7 25.0
2016-May-29 16:00 180 3 gusting 7 25.0
2016-May-29 15:55 198 2 gusting 8 25.0
2016-May-29 15:50 198 3 gusting 6 25.6
2016-May-29 15:45 191 3 gusting 6 25.6
2016-May-29 15:41 186 3 gusting 6 26.1
2016-May-29 15:35 209 2 gusting 6 26.1
2016-May-29 15:31 175 2 gusting 6 26.1
2016-May-29 15:25 173 2 gusting 6 26.1
2016-May-29 15:21 148 3 gusting 6 26.1
2016-May-29 15:15 192 4 gusting 7 26.1
2016-May-29 15:11 171 3 gusting 7 26.7
2016-May-29 15:05 156 2 gusting 6 26.7
2016-May-29 15:01 161 2 gusting 6 26.7
2016-May-29 14:55 198 2 gusting 7 26.7
2016-May-29 14:51 170 2 gusting 7 26.7
2016-May-29 14:44 192 3 gusting 6 26.7
2016-May-29 14:40 163 3 gusting 6 26.7
2016-May-29 14:34 161 3 gusting 8 26.7
2016-May-29 14:30 163 4 gusting 8 26.7
2016-May-29 14:24 138 3 gusting 8 26.7
2016-May-29 14:20 167 3 gusting 8 27.2
2016-May-29 14:14 188 4 gusting 8 26.7
2016-May-29 14:10 156 4 gusting 8 27.2
2016-May-29 14:04 159 5 gusting 9 27.2
2016-May-29 14:00 199 5 gusting 10 27.2
2016-May-29 13:54 202 4 gusting 10 27.8
2016-May-29 13:50 194 4 gusting 7 27.8
2016-May-29 13:44 200 3 gusting 6 28.3
2016-May-29 13:40 171 2 gusting 6 28.3
2016-May-29 13:34 187 2 gusting 6 28.3
2016-May-29 13:30 186 3 gusting 6 28.3
2016-May-29 13:24 196 3 gusting 6 27.8
2016-May-29 13:20 192 3 gusting 6 27.8
2016-May-29 13:14 225 3 gusting 6 27.8
2016-May-29 13:10 214 3 gusting 6 27.8
2016-May-29 13:06 223 3 gusting 8 27.8
2016-May-29 13:00 198 4 gusting 8 27.8
2016-May-29 12:56 207 4 gusting 8 27.8
2016-May-29 12:50 223 3 gusting 7 27.2
2016-May-29 12:46 198 5 gusting 8 27.8
2016-May-29 12:40 202 5 gusting 7 27.8
2016-May-29 12:36 207 4 gusting 7 28.3
2016-May-29 12:30 207 4 gusting 7 28.3
2016-May-29 12:25 208 4 gusting 9 28.3
2016-May-29 12:19 223 3 gusting 9 28.9
2016-May-29 12:15 190 3 gusting 6 28.9
2016-May-29 12:09 191 2 gusting 7 28.9
2016-May-29 12:05 172 2 gusting 7 29.4
2016-May-29 11:59 169 3 gusting 7 28.9
2016-May-29 11:55 159 3 gusting 7 28.9
2016-May-29 11:49 172 4 gusting 7 28.9
2016-May-29 11:45 212 3 gusting 7 28.9
2016-May-29 11:39 167 3 gusting 8 28.9
2016-May-29 11:35 171 3 gusting 8 28.9
2016-May-29 11:29 132 3 gusting 7 28.9
2016-May-29 11:25 144 3 gusting 6 28.9
2016-May-29 11:21 126 3 gusting 7 28.3
2016-May-29 11:15 165 3 gusting 7 28.9
2016-May-29 11:11 180 3 gusting 7 28.9
2016-May-29 11:05 178 3 gusting 9 28.3
2016-May-29 11:01 156 3 gusting 9 28.3
2016-May-29 10:54 207 3 gusting 7 28.3
2016-May-29 10:50 199 3 gusting 7 28.3
2016-May-29 10:44 197 2 gusting 6 28.3
2016-May-29 10:40 213 2 gusting 7 28.3
2016-May-29 10:34 146 2 gusting 7 28.3
2016-May-29 10:30 175 2 gusting 6 27.8
2016-May-29 10:24 188 2 gusting 6 27.8
2016-May-29 10:20 179 1 gusting 6 27.8
2016-May-29 10:14 174 1 gusting 6 27.8
2016-May-29 10:10 178 2 gusting 5 27.8
2016-May-29 10:04 163 2 gusting 6 27.8
2016-May-29 10:00 155 1 gusting 6 27.8
2016-May-29 09:54 150 1 gusting 6 27.2
2016-May-29 09:50 131 2 gusting 6 27.2
2016-May-29 09:44 222 2 gusting 5 26.7
2016-May-29 09:40 212 1 gusting 5 26.7
2016-May-29 09:36 213 1 gusting 5 26.7
2016-May-29 09:30 211 0 gusting 3 26.1
2016-May-29 09:26 212 0 gusting 3 25.6
2016-May-29 09:19 206 1 gusting 3 25.0
2016-May-29 09:15 206 1 gusting 6 25.0
2016-May-29 09:09 205 2 gusting 6 25.0
2016-May-29 09:06 199 1 gusting 4 25.0
2016-May-29 08:59 221 1 gusting 4 24.4
2016-May-29 08:55 225 2 gusting 6 24.4
2016-May-29 08:49 234 3 gusting 6 24.4
2016-May-29 08:45 221 4 gusting 7 25.0
2016-May-29 08:39 223 5 gusting 8 25.0
2016-May-29 08:35 235 4 gusting 8 25.0
2016-May-29 08:29 215 3 gusting 8 25.6
2016-May-29 08:25 221 2 gusting 6 25.6
2016-May-29 08:19 228 3 gusting 6 25.6
2016-May-29 08:15 221 3 gusting 6 25.6
2016-May-29 08:11 202 2 gusting 5 26.1
2016-May-29 08:05 187 1 gusting 4 26.1
2016-May-29 08:01 195 0 gusting 3 25.6
2016-May-29 07:55 190 1 gusting 5 25.0
2016-May-29 07:51 215 0 gusting 5 25.0
2016-May-29 07:44 218 1 gusting 4 24.4
2016-May-29 07:40 219 2 gusting 4 24.4
2016-May-29 07:34 222 2 gusting 5 24.4
2016-May-29 07:30 188 2 gusting 5 24.4
2016-May-29 07:24 255 1 gusting 4 24.4
2016-May-29 07:20 257 0 gusting 3 23.9
2016-May-29 07:14 259 23.9
2016-May-29 07:10 259 23.9
2016-May-29 07:04 260 23.3
2016-May-29 07:00 260 23.3
2016-May-29 06:56 260 23.3
2016-May-29 06:50 260 22.8
2016-May-29 06:46 260 0 gusting 3 22.8
2016-May-29 06:40 260 1 gusting 3 22.8
2016-May-29 06:36 260 0 gusting 3 22.2
2016-May-29 06:29 260 0 gusting 3 22.2
2016-May-29 06:25 260 0 gusting 3 21.7
2016-May-29 06:20 260 21.7
2016-May-29 06:15 260 0 gusting 2 21.7
2016-May-29 06:10 259 21.1
2016-May-29 06:05 259 0 gusting 2 21.1
2016-May-29 05:59 260 0 gusting 2 20.6
2016-May-29 05:55 259 0 gusting 3 20.6
2016-May-29 05:50 259 20.6
2016-May-29 05:45 259 1 gusting 4 20.6
2016-May-29 05:39 244 1 gusting 4 20.0
2016-May-29 05:36 240 0 gusting 3 20.0
2016-May-29 05:31 226 0 gusting 4 20.0
2016-May-29 05:25 217 0 gusting 4 20.0
2016-May-29 05:21 277 19.4
2016-May-29 05:14 280 19.4
2016-May-29 05:10 284 19.4
2016-May-29 05:04 284 18.9
2016-May-29 05:00 284 18.9
2016-May-29 04:54 284 18.3
2016-May-29 04:50 284 18.3
2016-May-29 04:44 284 17.8
2016-May-29 04:40 284 17.8
2016-May-29 04:35 284 17.2
2016-May-29 04:30 284 17.2
2016-May-29 04:24 284 17.2
2016-May-29 04:20 284 16.7
2016-May-29 04:16 284 16.7
2016-May-29 04:10 284 16.7
2016-May-29 04:06 284 16.7
2016-May-29 04:00 284 16.7
2016-May-29 03:56 284 16.7
2016-May-29 03:49 283 16.7
2016-May-29 03:46 284 16.7
2016-May-29 03:39 284 16.7
2016-May-29 03:35 284 16.1
2016-May-29 03:29 284 16.1
2016-May-29 03:25 284 16.1
2016-May-29 03:19 285 16.1
2016-May-29 03:15 284 16.1
2016-May-29 03:09 284 16.7
2016-May-29 03:05 285 16.7
2016-May-29 02:59 284 16.7
2016-May-29 02:55 285 16.7
2016-May-29 02:49 285 16.7
2016-May-29 02:45 285 16.7
2016-May-29 02:39 284 16.7
2016-May-29 02:35 285 16.7
2016-May-29 02:29 284 16.7
2016-May-29 02:25 284 16.7
2016-May-29 02:19 284 16.7
2016-May-29 02:15 284 16.7
2016-May-29 02:11 284 16.7
2016-May-29 02:05 284 16.7
2016-May-29 02:01 282 16.7
2016-May-29 01:55 279 16.7
2016-May-29 01:51 300 16.7
2016-May-29 01:44 301 16.7
2016-May-29 01:40 301 16.7
2016-May-29 01:34 300 17.2
2016-May-29 01:30 302 17.2
2016-May-29 01:24 302 17.2
2016-May-29 01:21 299 17.2
2016-May-29 01:14 300 17.2
2016-May-29 01:10 299 17.2
2016-May-29 01:04 296 17.2
2016-May-29 01:00 297 17.2
2016-May-29 00:54 294 17.8
2016-May-29 00:50 292 17.8
2016-May-29 00:44 310 17.8
2016-May-29 00:40 311 17.8
2016-May-29 00:34 311 17.8
2016-May-29 00:30 312 17.8
2016-May-29 00:24 315 17.8
2016-May-29 00:20 315 17.8
2016-May-29 00:14 315 1 gusting 3 17.8
2016-May-29 00:10 316 1 gusting 3 17.8
2016-May-29 00:06 319 0 gusting 4 17.8
2016-May-29 00:00 306 0 gusting 4 17.8
2016-May-28 23:54 299 0 gusting 4 18.3
2016-May-28 23:50 310 17.8
2016-May-28 23:44 314 18.3
2016-May-28 23:40 316 18.3
2016-May-28 23:35 315 18.3
2016-May-28 23:30 315 18.3
2016-May-28 23:26 317 0 gusting 3 18.3
2016-May-28 23:20 317 0 gusting 4 18.3
2016-May-28 23:16 317 1 gusting 4 18.3
2016-May-28 23:10 302 1 gusting 5 18.3
2016-May-28 23:06 300 2 gusting 6 18.3
2016-May-28 23:00 313 2 gusting 6 18.3
2016-May-28 22:56 304 1 gusting 4 18.3
2016-May-28 22:50 314 2 gusting 6 18.9
2016-May-28 22:46 321 3 gusting 6 18.9
2016-May-28 22:40 309 2 gusting 4 18.9
2016-May-28 22:34 310 1 gusting 4 18.9
2016-May-28 22:30 313 0 gusting 4 18.9
2016-May-28 22:26 306 0 gusting 5 18.9
2016-May-28 22:20 329 0 gusting 5 19.4
2016-May-28 22:16 313 19.4
2016-May-28 22:09 303 19.4
2016-May-28 22:05 306 19.4
2016-May-28 21:59 307 19.4
2016-May-28 21:55 304 20.0
2016-May-28 21:50 321 20.0
2016-May-28 21:46 323 0 gusting 3 20.0
2016-May-28 21:39 329 0 gusting 5 20.0
2016-May-28 21:35 326 0 gusting 5 20.0
2016-May-28 21:29 314 20.6
2016-May-28 21:25 315 0 gusting 4 20.6
2016-May-28 21:19 268 0 gusting 4 20.6
2016-May-28 21:15 244 21.1
2016-May-28 21:09 161 21.1
2016-May-28 21:05 160 21.1
2016-May-28 20:59 156 21.7
2016-May-28 20:55 153 21.7
2016-May-28 20:49 153 21.7
2016-May-28 20:46 153 21.1
2016-May-28 20:40 154 21.7
2016-May-28 20:34 153 21.7
2016-May-28 20:31 153 21.7
2016-May-28 20:24 153 21.7
2016-May-28 20:20 153 21.7
2016-May-28 20:14 153 21.7
2016-May-28 20:10 153 21.7
2016-May-28 20:04 153 21.7
2016-May-28 20:00 153 21.7
2016-May-28 19:54 153 21.7
2016-May-28 19:50 154 21.7
2016-May-28 19:44 153 21.7
2016-May-28 19:40 153 21.7
2016-May-28 19:34 153 21.7
2016-May-28 19:30 153 21.7
2016-May-28 19:24 153 22.2
2016-May-28 19:20 153 22.2
2016-May-28 19:14 153 22.2
2016-May-28 19:10 153 22.2
2016-May-28 19:04 155 22.2
2016-May-28 19:00 152 22.2
2016-May-28 18:54 155 22.2
2016-May-28 18:50 155 22.2
2016-May-28 18:45 155 22.2
2016-May-28 18:40 155 0 gusting 3 22.8
2016-May-28 18:34 153 0 gusting 2 22.8
2016-May-28 18:31 150 22.2
2016-May-28 18:24 149 1 gusting 4 22.8
2016-May-28 18:20 149 1 gusting 5 22.8
2016-May-28 18:16 154 1 gusting 5 22.8
2016-May-28 18:10 163 0 gusting 4 22.8
2016-May-28 18:06 167 0 gusting 4 23.3
2016-May-28 18:01 161 0 gusting 4 22.8